TimeEDT,TemperatureF,Dew PointF,Humidity,Sea Level PressureIn,VisibilityMPH,Wind Direction,Wind SpeedMPH,Gust SpeedMPH,PrecipitationIn,Events,Conditions,WindDirDegrees,DateUTC
12:54 AM,37.9,28.0,68,30.04,10.0,SW,5.8,-,N/A,,Clear,230,2013-03-23 04:54:00
1:54 AM,36.0,28.9,76,30.04,10.0,Calm,Calm,-,N/A,,Clear,0,2013-03-23 05:54:00
2:54 AM,37.9,30.0,73,30.04,10.0,Calm,Calm,-,N/A,,Clear,0,2013-03-23 06:54:00
3:54 AM,37.0,30.9,79,30.02,10.0,Calm,Calm,-,N/A,,Mostly Cloudy,0,2013-03-23 07:54:00
4:54 AM,37.9,30.0,73,30.01,10.0,Calm,Calm,-,N/A,,Overcast,0,2013-03-23 08:54:00
5:54 AM,34.0,28.9,82,30.02,10.0,South,3.5,-,N/A,,Clear,170,2013-03-23 09:54:00
6:54 AM,32.0,28.0,85,30.04,10.0,SW,3.5,-,N/A,,Clear,230,2013-03-23 10:54:00
7:54 AM,37.0,30.9,79,30.04,10.0,Calm,Calm,-,N/A,,Mostly Cloudy,0,2013-03-23 11:54:00
8:54 AM,45.0,30.9,58,30.04,10.0,Calm,Calm,-,N/A,,Scattered Clouds,0,2013-03-23 12:54:00
9:54 AM,50.0,28.9,44,30.04,10.0,WNW,4.6,-,N/A,,Mostly Cloudy,290,2013-03-23 13:54:00
10:54 AM,52.0,28.0,40,30.04,10.0,NNW,4.6,-,N/A,,Mostly Cloudy,330,2013-03-23 14:54:00
11:54 AM,53.1,30.0,41,30.04,10.0,Calm,Calm,-,N/A,,Mostly Cloudy,0,2013-03-23 15:54:00
12:54 PM,54.0,28.0,37,30.04,10.0,Calm,Calm,-,N/A,,Overcast,0,2013-03-23 16:54:00
1:54 PM,54.0,27.0,35,30.01,10.0,Variable,4.6,-,N/A,,Overcast,0,2013-03-23 17:54:00
2:54 PM,54.0,28.0,37,29.99,10.0,West,5.8,-,N/A,,Overcast,260,2013-03-23 18:54:00
3:54 PM,55.0,27.0,34,29.97,10.0,Variable,3.5,-,N/A,,Overcast,0,2013-03-23 19:54:00
4:54 PM,55.0,27.0,34,29.94,10.0,Calm,Calm,-,N/A,,Mostly Cloudy,0,2013-03-23 20:54:00
5:54 PM,57.0,28.9,34,29.93,10.0,North,8.1,-,N/A,,Scattered Clouds,10,2013-03-23 21:54:00
6:54 PM,54.0,28.9,38,29.93,10.0,NE,4.6,-,N/A,,Scattered Clouds,40,2013-03-23 22:54:00
7:54 PM,48.9,32.0,52,29.94,10.0,Calm,Calm,-,N/A,,Scattered Clouds,0,2013-03-23 23:54:00
8:54 PM,45.0,34.0,65,29.99,10.0,SSW,5.8,-,N/A,,Scattered Clouds,200,2013-03-24 00:54:00
9:54 PM,43.0,35.1,74,30.00,10.0,Calm,Calm,-,N/A,,Clear,0,2013-03-24 01:54:00
10:54 PM,39.9,35.1,83,29.99,10.0,Calm,Calm,-,N/A,,Clear,0,2013-03-24 02:54:00
11:54 PM,41.0,36.0,82,29.96,10.0,ENE,3.5,-,N/A,,Partly Cloudy,60,2013-03-24 03:54:00